Location: Skymont Scout Reservation
(35.4344°N, 85.8742°W)
Time: 04:46:25
(UTC-05:00)

ISS - All Passes

Search period start: 25 August 2016 00:00
Search period end: 04 September 2016 00:00
Orbit: 402 x 406 km, 51.6° (Epoch: 25 August)

Date Brightness Start Highest point End Pass type
(mag) Time Alt. Az. Time Alt. Az. Time Alt. Az.
25 Aug - 08:26:45 10° S 08:29:01 18° SE 08:31:18 10° E daylight
25 Aug - 10:02:13 10° WSW 10:05:17 36° NW 10:08:21 10° NNE daylight
25 Aug - 14:57:41 10° N 14:58:25 11° NNE 14:59:08 10° NE daylight
25 Aug - 16:32:11 10° NW 16:35:27 62° NE 16:38:40 10° ESE daylight
26 Aug - 09:09:34 10° SW 09:12:50 74° NW 09:16:07 10° NE daylight
26 Aug - 10:48:34 10° NW 10:49:47 12° NNW 10:51:00 10° N daylight
26 Aug - 15:40:00 10° NNW 15:42:58 31° NE 15:45:56 10° E daylight
26 Aug - 17:16:45 10° W 17:19:18 21° SW 17:21:49 10° S daylight
27 Aug - 08:17:18 10° SSW 08:20:27 48° SE 08:23:39 10° ENE daylight
27 Aug - 09:54:48 10° WNW 09:57:07 18° NNW 09:59:26 10° NNE daylight
27 Aug - 14:48:00 10° NNW 14:50:24 18° NNE 14:52:47 10° ENE daylight
27 Aug - 16:23:52 10° WNW 16:27:01 44° SW 16:30:08 10° SSE daylight
28 Aug - 07:25:33 10° S 07:28:10 22° SE 07:30:48 10° ENE daylight
28 Aug - 09:01:36 10° W 09:04:32 29° NW 09:07:27 10° NNE daylight
28 Aug - 13:56:20 10° N 13:57:43 12° NNE 13:59:05 10° NE daylight
28 Aug - 15:31:21 10° NW 15:34:39 81° NE 15:37:54 10° SE daylight
29 Aug - 06:35:06 10° SE 06:35:57 11° SE 06:36:48 10° ESE daylight
29 Aug - 08:08:47 10° WSW 08:12:00 57° NW 08:15:15 10° NE daylight
29 Aug - 09:48:43 10° NNW 09:49:04 10° NNW 09:49:24 10° NNW daylight
29 Aug - 14:39:04 10° NNW 14:42:10 38° NE 14:45:15 10° ESE daylight
29 Aug - 16:16:14 10° W 16:18:23 16° SW 16:20:32 10° S daylight
30 Aug - 07:16:20 10° SW 07:19:35 64° SE 07:22:49 10° NE daylight
30 Aug - 08:54:18 10° WNW 08:56:19 15° NNW 08:58:21 10° N daylight
30 Aug - 13:46:57 10° NNW 13:49:35 22° NNE 13:52:12 10° E daylight
30 Aug - 15:23:05 10° WNW 15:26:06 34° SW 15:29:05 10° SSE daylight
31 Aug - 06:24:21 10° SSW 06:27:12 28° SE 06:30:05 10° ENE daylight
31 Aug - 08:00:55 10° W 08:03:39 24° NNW 08:06:25 10° NNE daylight
31 Aug - 12:55:06 10° N 12:56:53 14° NNE 12:58:41 10° ENE daylight
31 Aug - 14:30:26 10° NW 14:33:43 78° SW 14:36:58 10° SE daylight
01 Sep - 05:33:09 10° SSE 05:34:55 14° SE 05:36:41 10° E visible
01 Sep - 07:07:55 10° WSW 07:11:04 44° NW 07:14:14 10° NE daylight
01 Sep - 13:38:01 10° NW 13:41:14 48° NE 13:44:24 10° ESE daylight
01 Sep - 15:15:47 10° W 15:17:21 13° SW 15:18:54 10° SSW daylight
02 Sep - 06:15:19 10° SW 06:18:34 84° SE 06:21:51 10° NE daylight
02 Sep - 07:53:45 10° WNW 07:55:25 13° NNW 07:57:05 10° N daylight
02 Sep - 12:45:49 10° NNW 12:48:38 25° NE 12:51:26 10° E daylight
02 Sep - 14:22:14 10° WNW 14:25:03 26° SW 14:27:51 10° S daylight
03 Sep - 05:23:06 10° SSW 05:26:09 36° SE 05:29:12 10° ENE visible
03 Sep - 07:00:08 10° W 07:02:41 21° NNW 07:05:15 10° NNE daylight
03 Sep - 11:53:49 10° NNW 11:55:56 16° NNE 11:58:03 10° ENE daylight
03 Sep - 13:29:25 10° NW 13:32:39 59° SW 13:35:53 10° SE daylight
